Location: ???? ?????????
(31.1304°N, 31.7111°E)
Time: 16:10:48
(UTC+00:00)

Courier 1B - Visible Passes

Search period start: 27 February 2021 00:00
Search period end: 09 March 2021 00:00
Orbit: 962 x 1209 km, 28.3° (Epoch: 26 February)

Date Brightness Start Highest point End Pass type
(mag) Time Alt. Az. Time Alt. Az. Time Alt. Az.
03 Mar 9.8 03:18:43 10° S 03:22:18 15° SSE 03:25:51 10° ESE visible
04 Mar 10.0 02:27:25 10° SSE 02:28:42 11° SSE 02:29:59 10° SE visible
05 Mar 9.2 03:23:09 10° SSW 03:28:28 26° SSE 03:33:42 10° E visible
06 Mar 9.4 02:30:19 10° SSW 02:34:52 20° SSE 02:39:27 10° ESE visible
07 Mar 9.6 01:40:14 15° SSE 01:41:15 15° SSE 01:44:49 10° ESE visible
07 Mar 8.6 03:28:35 10° SW 03:34:43 39° SSE 03:40:41 10° E visible
08 Mar 8.8 02:36:59 18° SSW 02:41:05 32° SSE 02:46:47 10° E visible
